Regional Weather Roundup
Issued by NWS Albany, NY

Home | Current Version | Previous Version | Graphics & Text | Print | Product List | Glossary Off
Versions: 1 2 3 4 5 6 7 8 9 10 11 12 13 14 15 16 17 18 19 20 21 22 23 24 25 26 27

000
ASUS41 KALY 170710
RWRALY

NEW YORK STATE HOURLY WEATHER ROUNDUP
NATIONAL WEATHER SERVICE ALBANY NY
200 AM EST FRI NOV 17 2017

NOTE: "FAIR" INDICATES FEW OR NO CLOUDS BELOW 12,000 FEET WITH NO
SIGNIFICANT WEATHER AND/OR NO OBSTRUCTIONS TO VISIBILITY.

NYZ032-033-038>043-046>054-057>066-NYZ062>081-082-084-170800-
EAST


CITY           SKY/WX    TMP DP  RH WIND       PRES   REMARKS
ALBANY         MOCLDY    38  26  62 NW21G30   29.90R WCI  28
GLENS FALLS    CLOUDY    37  27  67 NW12      29.86R WCI  29
POUGHKEEPSIE   CLOUDY    42  28  57 W10       29.89R
NEWBURGH       PTCLDY    39  30  70 W14G25    29.89S WCI  31
MONTGOMERY     PTCLDY    40  28  62 NW13G22   29.90R WCI  32
WHITE PLAINS   MOCLDY    41  29  62 W16G28    29.89R
ISLIP          CLEAR     43  32  65 NW15G24   29.87R
NEW YORK CITY  PTCLDY    44  31  60 NW16      29.93R
CENTRAL PARK   CLEAR     43  30  60 NW10G20   29.95R
$$

NYZ005>009-017-018-044>046-055-056-170800-
CENTRAL


CITY           SKY/WX    TMP DP  RH WIND       PRES   REMARKS
FULTON         CLOUDY    35  26  69 NW13G26   30.05R WCI  26
SYRACUSE       CLOUDY    34  28  79 W17G25    30.04R WCI  23
ROME           CLOUDY    33  28  81 NW16G25   30.00R WCI  23
ELMIRA         CLOUDY    36  27  69 W12G23    30.06R WCI  28
BINGHAMTON     CLOUDY    31  24  75 NW17G30   29.97R WCI  19
MONTICELLO     FLURRIES  34  27  75 NW20G28   29.91R WCI  23
$$

NYZ026>034-041>043-087-170800-
NORTH


CITY           SKY/WX    TMP DP  RH WIND       PRES   REMARKS
WATERTOWN      CLOUDY    31  23  72 NW13      30.04R WCI  21
FORT DRUM      NOT AVBL
OGDENSBURG     MOCLDY    31  25  76 NW15G21   30.01R WCI  21
MASSENA        CLOUDY    31  24  75 NW15G26   29.98R WCI  20
SARANAC LAKE   CLOUDY    25  24  96 W8G18     29.85R WCI  16
PLATTSBURGH    CLOUDY    34  22  61 W12G30    29.84R WCI  25
$$

NYZ001>004-010>016-019>021-085-170800-
WEST


CITY           SKY/WX    TMP DP  RH WIND       PRES   REMARKS
NIAGARA FALLS  CLOUDY    35  25  66 NW16      30.17R WCI  25
BUFFALO        CLOUDY    34  26  72 NW10      30.16R WCI  26
DUNKIRK        CLOUDY    35  28  75 NW15      30.19R WCI  25
JAMESTOWN      CLOUDY    32  28  85 NW12      30.14R WCI  23
WELLSVILLE     CLOUDY    31  24  75 NW14G24   30.08R WCI  21
ROCHESTER      CLOUDY    34  26  72 NW17G25   30.13R WCI  23
PENN YAN       CLOUDY    33  26  75 NW13G25   30.08R WCI  24
$$

             KEY
       WCI = WIND CHILL INDEX
       VSB = VISIBILITY
       HX  = HEAT INDEX
$$




USA.gov is the U.S. government's official web portal to all federal, state and local government web resources and services.